Location: Riverside
(39.1734°N, 77.8561°W)
Time: 09:42:30
(UTC+00:00)

ISS - Visible Passes

Search period start: 20 October 2019 00:00
Search period end: 30 October 2019 00:00
Orbit: 411 x 421 km, 51.6° (Epoch: 20 October)

Date Brightness Start Highest point End Pass type
(mag) Time Alt. Az. Time Alt. Az. Time Alt. Az.
22 Oct -1.6 11:00:00 10° SSW 11:02:57 29° SE 11:05:55 10° ENE visible
23 Oct -0.8 10:12:18 10° S 10:14:31 17° SE 10:16:44 10° E visible
24 Oct -3.8 10:58:58 10° SW 11:02:20 89° NNW 11:05:42 10° NE visible
25 Oct -2.9 10:11:17 16° SSW 10:13:45 49° SE 10:17:01 10° ENE visible
26 Oct -1.8 09:25:28 26° SE 09:25:28 26° SE 09:28:07 10° ENE visible
26 Oct -2.9 10:58:46 10° W 11:01:52 34° NNW 11:04:59 10° NE visible
27 Oct -3.6 10:12:22 42° W 10:13:09 55° NW 10:16:29 10° NE visible
28 Oct -1.8 09:26:09 28° NE 09:26:09 28° NE 09:27:52 10° NE visible
28 Oct -1.9 10:59:10 10° WNW 11:01:35 18° NNW 11:04:00 10° NNE visible
29 Oct -2.4 10:12:42 24° NNW 10:12:43 24° NNW 10:15:34 10° NNE visible
